TimeCST,TemperatureF,Dew PointF,Humidity,Sea Level PressureIn,VisibilityMPH,Wind Direction,Wind SpeedMPH,Gust SpeedMPH,PrecipitationIn,Events,Conditions,WindDirDegrees,DateUTC
12:58 AM,-2.9,-8.9,76,30.44,10.0,NNE,4.6,-,N/A,,Mostly Cloudy,20,2014-03-05 06:58:00
1:58 AM,0.7,-6.3,72,30.41,10.0,NNE,4.6,-,N/A,,Overcast,30,2014-03-05 07:58:00
2:58 AM,1.2,-5.8,72,30.42,10.0,North,4.6,-,N/A,,Overcast,360,2014-03-05 08:58:00
3:58 AM,2.7,-4.5,72,30.44,10.0,North,5.8,-,N/A,,Overcast,350,2014-03-05 09:58:00
4:03 AM,3.2,-4.0,72,30.35,10.0,NNW,4.6,-,N/A,Snow,Light Snow,340,2014-03-05 10:03:00
4:13 AM,3.2,-4.0,72,30.35,10.0,North,2.3,-,N/A,,Overcast,350,2014-03-05 10:13:00
4:58 AM,3.2,-4.4,71,30.44,10.0,Calm,Calm,-,0.00,,Overcast,0,2014-03-05 10:58:00
5:58 AM,3.9,-3.8,70,30.44,10.0,Calm,Calm,-,N/A,,Overcast,0,2014-03-05 11:58:00
6:17 AM,3.2,-4.0,72,30.35,10.0,SE,2.3,-,N/A,Snow,Light Snow,140,2014-03-05 12:17:00
6:22 AM,5.0,-4.0,66,30.35,10.0,ESE,3.5,-,N/A,,Overcast,110,2014-03-05 12:22:00
6:23 AM,5.0,-4.0,66,30.35,10.0,ESE,2.3,-,N/A,Snow,Light Snow,120,2014-03-05 12:23:00
6:33 AM,3.2,-4.0,72,30.36,10.0,SSE,2.3,-,N/A,,Overcast,160,2014-03-05 12:33:00
6:58 AM,4.3,-2.9,72,30.44,10.0,SE,5.8,-,0.00,,Overcast,130,2014-03-05 12:58:00
7:58 AM,4.6,-2.2,73,30.44,10.0,SSE,6.9,-,N/A,,Overcast,160,2014-03-05 13:58:00
8:58 AM,7.0,-0.2,72,30.42,10.0,SSE,9.2,-,N/A,,Overcast,150,2014-03-05 14:58:00
9:58 AM,10.6,3.0,72,30.39,10.0,SSE,10.4,-,N/A,,Overcast,150,2014-03-05 15:58:00
10:58 AM,13.8,5.7,70,30.39,10.0,South,16.1,-,N/A,,Overcast,170,2014-03-05 16:58:00
11:58 AM,15.3,8.1,73,30.35,10.0,South,16.1,-,N/A,,Overcast,170,2014-03-05 17:58:00
12:58 PM,17.1,10.6,76,30.32,10.0,South,23.0,-,N/A,,Overcast,170,2014-03-05 18:58:00
1:58 PM,18.9,12.7,77,30.25,7.0,SSE,25.3,-,N/A,,Overcast,160,2014-03-05 19:58:00
2:19 PM,19.4,14.0,80,30.15,5.0,SSE,21.9,29.9,N/A,,Haze,160,2014-03-05 20:19:00
2:24 PM,19.4,14.0,80,30.16,4.0,South,28.8,33.4,N/A,,Haze,170,2014-03-05 20:24:00
2:29 PM,19.4,14.0,80,30.15,3.0,SSE,25.3,33.4,N/A,,Haze,160,2014-03-05 20:29:00
2:34 PM,19.4,14.0,80,30.15,3.0,South,28.8,35.7,N/A,,Haze,170,2014-03-05 20:34:00
2:36 PM,19.4,14.0,80,30.14,3.0,SSE,28.8,35.7,N/A,,Haze,160,2014-03-05 20:36:00
2:41 PM,19.4,14.0,80,30.15,2.5,SSE,26.5,35.7,N/A,,Haze,160,2014-03-05 20:41:00
2:46 PM,19.4,14.0,80,30.15,2.5,South,29.9,33.4,N/A,,Haze,170,2014-03-05 20:46:00
2:51 PM,19.4,14.0,80,30.14,3.0,South,28.8,32.2,N/A,,Haze,170,2014-03-05 20:51:00
2:52 PM,19.4,14.0,80,30.14,2.5,South,29.9,35.7,N/A,,Haze,170,2014-03-05 20:52:00
2:57 PM,19.4,14.0,80,30.15,2.5,South,27.6,35.7,N/A,,Haze,170,2014-03-05 20:57:00
2:58 PM,18.9,14.0,81,30.23,2.5,South,27.6,35.7,N/A,,Haze,170,2014-03-05 20:58:00
3:08 PM,19.4,14.0,80,30.14,4.0,SSE,24.2,-,N/A,,Haze,160,2014-03-05 21:08:00
3:14 PM,19.4,14.0,80,30.14,4.0,South,26.5,-,N/A,Snow,Light Snow,170,2014-03-05 21:14:00
3:18 PM,19.4,14.0,80,30.14,4.0,SSE,26.5,-,N/A,Snow,Light Snow,160,2014-03-05 21:18:00
3:43 PM,19.4,15.8,86,30.13,5.0,SSE,21.9,28.8,N/A,Snow,Light Snow,160,2014-03-05 21:43:00
3:44 PM,19.4,15.8,86,30.14,5.0,South,23.0,28.8,N/A,,Haze,170,2014-03-05 21:44:00
3:58 PM,20.3,16.0,83,30.18,3.0,SSE,29.9,35.7,0.00,,Haze,160,2014-03-05 21:58:00
4:03 PM,21.2,15.8,80,30.11,3.0,SSE,28.8,35.7,N/A,,Haze,160,2014-03-05 22:03:00
4:23 PM,21.2,15.8,80,30.11,2.5,South,25.3,34.5,N/A,,Haze,170,2014-03-05 22:23:00
4:28 PM,21.2,15.8,80,30.11,3.0,South,25.3,32.2,N/A,,Haze,170,2014-03-05 22:28:00
4:58 PM,20.8,16.7,84,30.19,6.0,South,21.9,-,N/A,,Haze,170,2014-03-05 22:58:00
5:58 PM,21.2,16.9,83,30.17,6.0,South,25.3,-,N/A,,Haze,170,2014-03-05 23:58:00
6:12 PM,21.2,17.6,86,30.08,6.0,South,24.2,32.2,N/A,Snow,Light Snow,170,2014-03-06 00:12:00
6:22 PM,21.2,17.6,86,30.08,2.5,South,21.9,29.9,N/A,Snow,Light Snow,170,2014-03-06 00:22:00
6:27 PM,21.2,17.6,86,30.08,4.0,South,24.2,-,N/A,,Haze,170,2014-03-06 00:27:00
6:42 PM,21.2,17.6,86,30.06,7.0,South,24.2,31.1,N/A,,Overcast,190,2014-03-06 00:42:00
6:58 PM,21.2,16.5,82,30.14,7.0,South,25.3,33.4,0.00,,Overcast,190,2014-03-06 00:58:00
7:53 PM,21.2,15.8,80,30.05,10.0,South,19.6,-,N/A,,Overcast,190,2014-03-06 01:53:00
7:58 PM,21.0,16.5,83,30.14,10.0,SSW,20.7,-,N/A,,Overcast,200,2014-03-06 01:58:00
8:03 PM,21.2,15.8,80,30.05,9.0,SSW,20.7,-,N/A,,Overcast,200,2014-03-06 02:03:00
8:28 PM,21.2,15.8,80,30.04,10.0,SSW,20.7,-,N/A,,Overcast,200,2014-03-06 02:28:00
8:29 PM,21.2,15.8,80,30.04,10.0,SSW,23.0,-,N/A,,Overcast,200,2014-03-06 02:29:00
8:58 PM,20.8,16.5,83,30.12,10.0,SSW,19.6,26.5,N/A,,Overcast,200,2014-03-06 02:58:00
9:58 PM,20.7,16.5,84,30.12,10.0,SSW,19.6,25.3,N/A,,Overcast,210,2014-03-06 03:58:00
10:58 PM,19.4,15.1,83,30.09,10.0,South,18.4,26.5,N/A,,Mostly Cloudy,170,2014-03-06 04:58:00
11:08 PM,19.4,14.0,80,30.02,10.0,South,20.7,-,N/A,,Mostly Cloudy,170,2014-03-06 05:08:00
11:23 PM,17.6,14.0,86,30.01,10.0,SSE,20.7,26.5,N/A,,Scattered Clouds,160,2014-03-06 05:23:00
11:43 PM,17.6,14.0,86,30.01,10.0,South,19.6,-,N/A,,Mostly Cloudy,170,2014-03-06 05:43:00
11:58 PM,17.6,14.0,86,30.07,10.0,South,20.7,-,N/A,,Mostly Cloudy,170,2014-03-06 05:58:00